Terminal Aerodrome Forecast
Issued by NWS Raleigh/Durham, NC

Home | Current Version | Previous Version | Text Only | Print | Product List | Glossary On
Versions: 1 2 3 4 5 6 7 8 9 10 11 12 13 14 15 16 17 18 19 20 21 22 23 24 25 26 27 28 29 30 31 32 33 34 35 36 37 38 39 40 41 42 43 44 45 46 47 48 49 50
000
FTUS42 KRAH 051507 AAA
TAFRDU
TAF AMD
KRDU 051507Z 0515/0612 21006KT P6SM SCT024 BKN180
      TEMPO 0515/0517 BKN024
     FM051700 23008KT P6SM SCT045 BKN120
      TEMPO 0522/0601 VRB15G30KT 3SM -TSRA SCT025 BKN035CB=

USA.gov is the U.S. government's official web portal to all federal, state and local government web resources and services.